Gatesville, TX

2:28 AM CST on February 06, 2016 (GMT -0600)
Gatesville

Weather History for KGOP - March, 2014

Change the Weather History Date:

Monday, March 17, 2014

  Actual Average (KHLR) Record (KHLR)
Temperature  
Mean Temperature 48 °F -  
Max Temperature 64 °F 68 °F 82 °F (2004)
Min Temperature 33 °F 50 °F 41 °F (2005)
Degree Days  
Heating Degree Days 16    
Moisture  
Dew Point 28 °F    
Average Humidity 47    
Maximum Humidity 81    
Minimum Humidity 21    
Precipitation  
Precipitation 0.00 in - - ()
Sea Level Pressure  
Sea Level Pressure 29.94 in    
Wind  
Wind Speed 6 mph (WNW)    
Max Wind Speed 13 mph    
Max Gust Speed 20 mph    
Visibility 10 miles    
Events      
Averages and records for this station are not official NWS values.
T = Trace of Precipitation, MM = Missing Value Source: NWS Daily Summary

Daily Weather History Graph

Daily Weather History Graph

Search for Another Location

Airport or City:

Trip Planner

Search our weather history database for the weather conditions in past years. The results will help you decide how hot, cold, wet, or windy it might be!

Date:

Astronomy

Mar. 17, 2014 Rise Set
Actual Time 7:38 AM CDT 7:40 PM CDT
Civil Twilight 7:14 AM CDT 8:04 PM CDT
Nautical Twilight 6:46 AM CDT 8:33 PM CDT
Astronomical Twilight 6:17 AM CDT 9:01 PM CDT
Moon 8:52 PM CDT (3/17) 8:00 AM CDT (3/17)
Length of Visible Light 12h 50m
Length of Day
12h 02m
Full, 99% of the Moon is Illuminated
Mar 17
Full
Mar 23
Last Quarter
Mar 30
New
Apr 7
First Quarter
Apr 15
Full

Hourly Weather History & Observations

Time (CDT) Temp. Windchill Dew Point Humidity Pressure Visibility Wind Dir Wind Speed Gust Speed Precip Events Conditions
12:15 AM 44.6 °F 38.4 °F 32.0 °F 61% 30.09 in 10.0 mi North 12.7 mph 16.1 mph N/A   Mostly Cloudy
12:35 AM 44.6 °F 38.8 °F 32.0 °F 61% 30.08 in 10.0 mi North 11.5 mph - N/A   Overcast
1:15 AM 44.6 °F 39.2 °F 32.0 °F 61% 30.07 in 10.0 mi North 10.4 mph - N/A   Overcast
1:35 AM 44.6 °F 40.7 °F 32.0 °F 61% 30.07 in 10.0 mi NNW 6.9 mph 18.4 mph N/A   Scattered Clouds
1:55 AM 42.8 °F 36.6 °F 32.0 °F 66% 30.07 in 10.0 mi NNW 11.5 mph - N/A   Scattered Clouds
2:15 AM 44.6 °F 38.8 °F 30.2 °F 57% 30.08 in 10.0 mi NNW 11.5 mph 19.6 mph N/A   Mostly Cloudy
2:35 AM 44.6 °F 38.4 °F 28.4 °F 53% 30.06 in 10.0 mi North 12.7 mph - N/A   Mostly Cloudy
2:55 AM 44.6 °F 40.2 °F 28.4 °F 53% 30.05 in 10.0 mi North 8.1 mph 16.1 mph N/A   Partly Cloudy
3:15 AM 42.8 °F 38.0 °F 28.4 °F 57% 30.05 in 10.0 mi NNW 8.1 mph - N/A   Clear
3:35 AM 42.8 °F 38.0 °F 28.4 °F 57% 30.05 in 10.0 mi NNW 8.1 mph - N/A   Clear
3:55 AM 41.0 °F 36.4 °F 28.4 °F 61% 30.04 in 10.0 mi NNW 6.9 mph - N/A   Clear
4:15 AM 39.2 °F 37.0 °F 28.4 °F 65% 30.04 in 10.0 mi NW 3.5 mph - N/A   Clear
4:35 AM 39.2 °F 37.0 °F 28.4 °F 65% 30.03 in 10.0 mi WNW 3.5 mph - N/A   Clear
4:55 AM 39.2 °F - 28.4 °F 65% 30.03 in 10.0 mi Calm Calm - N/A   Clear
5:15 AM 39.2 °F - 28.4 °F 65% 30.03 in 10.0 mi Calm Calm - N/A   Clear
5:35 AM 37.4 °F - 28.4 °F 70% 30.03 in 10.0 mi Calm Calm - N/A   Clear
5:55 AM 35.6 °F - 28.4 °F 75% 30.02 in 10.0 mi Calm Calm - N/A   Clear
6:15 AM 33.8 °F 30.8 °F 28.4 °F 81% 30.03 in 10.0 mi West 3.5 mph - N/A   Clear
6:35 AM 35.6 °F 32.8 °F 28.4 °F 75% 30.03 in 10.0 mi West 3.5 mph - N/A   Clear
6:55 AM 33.8 °F - 28.4 °F 81% 30.04 in 10.0 mi Calm Calm - N/A   Clear
7:15 AM 33.8 °F - 28.4 °F 81% 30.04 in 10.0 mi Calm Calm - N/A   Clear
7:35 AM 33.8 °F - 26.6 °F 75% 30.04 in 10.0 mi Calm Calm - N/A   Clear
7:55 AM 33.8 °F - 26.6 °F 75% 30.04 in 10.0 mi Calm Calm - N/A   Clear
8:15 AM 33.8 °F - 28.4 °F 81% 30.04 in 10.0 mi Calm Calm - N/A   Clear
8:35 AM 37.4 °F 34.9 °F 28.4 °F 70% 30.05 in 10.0 mi NW 3.5 mph - N/A   Clear
8:55 AM 39.2 °F 35.9 °F 28.4 °F 65% 30.05 in 10.0 mi NNW 4.6 mph - N/A   Clear
9:15 AM 42.8 °F 38.0 °F 28.4 °F 57% 30.05 in 10.0 mi NNW 8.1 mph - N/A   Clear
9:35 AM 42.8 °F 39.3 °F 28.4 °F 57% 30.06 in 10.0 mi NNW 5.8 mph - N/A   Clear
9:55 AM 42.8 °F 40.1 °F 26.6 °F 53% 30.05 in 10.0 mi NNE 4.6 mph - N/A   Clear
10:15 AM 44.6 °F 40.7 °F 26.6 °F 49% 30.05 in 10.0 mi North 6.9 mph - N/A   Clear
10:35 AM 44.6 °F 43.1 °F 26.6 °F 49% 30.04 in 10.0 mi North 3.5 mph - N/A   Clear
10:55 AM 46.4 °F - 26.6 °F 46% 30.05 in 10.0 mi Calm Calm - N/A   Clear
11:15 AM 48.2 °F - 26.6 °F 43% 30.04 in 10.0 mi NNW 3.5 mph - N/A   Clear
11:35 AM 50.0 °F - 26.6 °F 40% 30.04 in 10.0 mi NNW 3.5 mph - N/A   Clear
11:55 AM 51.8 °F - 24.8 °F 35% 30.04 in 10.0 mi Calm Calm - N/A   Clear
12:15 PM 53.6 °F - 26.6 °F 35% 30.04 in 10.0 mi Calm Calm - N/A   Clear
12:35 PM 53.6 °F - 24.8 °F 33% 30.02 in 10.0 mi West 4.6 mph - N/A   Clear
12:55 PM 55.4 °F - 24.8 °F 31% 30.00 in 10.0 mi West 5.8 mph - N/A   Clear
1:15 PM 55.4 °F - 24.8 °F 31% 29.99 in 10.0 mi North 3.5 mph - N/A   Clear
1:35 PM 57.2 °F - 24.8 °F 29% 29.97 in 10.0 mi SW 6.9 mph - N/A   Clear
1:55 PM 57.2 °F - 24.8 °F 29% 29.96 in 10.0 mi Calm Calm - N/A   Clear
2:15 PM 59.0 °F - 24.8 °F 27% 29.95 in 10.0 mi WSW 4.6 mph - N/A   Clear
2:35 PM 60.8 °F - 26.6 °F 27% 29.93 in 10.0 mi West 9.2 mph - N/A   Clear
2:55 PM 60.8 °F - 26.6 °F 27% 29.91 in 10.0 mi West 9.2 mph - N/A   Clear
3:15 PM 62.6 °F - 26.6 °F 26% 29.89 in 10.0 mi WSW 6.9 mph - N/A   Clear
3:35 PM 62.6 °F - 24.8 °F 24% 29.88 in 10.0 mi SSW 6.9 mph - N/A   Clear
3:55 PM 62.6 °F - 24.8 °F 24% 29.86 in 10.0 mi Calm Calm - N/A   Clear
4:15 PM 64.4 °F - 26.6 °F 24% 29.85 in 10.0 mi Calm Calm - N/A   Clear
4:35 PM 64.4 °F - 24.8 °F 22% 29.84 in 10.0 mi Calm Calm - N/A   Clear
4:55 PM 64.4 °F - 26.6 °F 24% 29.83 in 10.0 mi West 5.8 mph - N/A   Clear
5:15 PM 64.4 °F - 26.6 °F 24% 29.82 in 10.0 mi South 6.9 mph - N/A   Clear
5:35 PM 64.4 °F - 26.6 °F 24% 29.81 in 10.0 mi SW 8.1 mph - N/A   Clear
5:55 PM 64.4 °F - 24.8 °F 22% 29.80 in 10.0 mi SW 10.4 mph - N/A   Clear
6:15 PM 64.4 °F - 23.0 °F 21% 29.79 in 10.0 mi SSW 8.1 mph - N/A   Clear
6:35 PM 64.4 °F - 26.6 °F 24% 29.79 in 10.0 mi Calm Calm - N/A   Clear
6:55 PM 64.4 °F - 24.8 °F 22% 29.79 in 10.0 mi South 5.8 mph - N/A   Clear
7:15 PM 62.6 °F - 26.6 °F 26% 29.78 in 10.0 mi Calm Calm - N/A   Clear
7:35 PM 62.6 °F - 28.4 °F 27% 29.78 in 10.0 mi Calm Calm - N/A   Clear
7:55 PM 59.0 °F - 28.4 °F 31% 29.78 in 10.0 mi Calm Calm - N/A   Clear
8:15 PM 55.4 °F - 30.2 °F 38% 29.78 in 10.0 mi SE 3.5 mph - N/A   Clear
8:35 PM 55.4 °F - 30.2 °F 38% 29.77 in 10.0 mi Calm Calm - N/A   Clear
8:55 PM 53.6 °F - 30.2 °F 41% 29.77 in 10.0 mi SSE 3.5 mph - N/A   Clear
9:15 PM 51.8 °F - 30.2 °F 44% 29.77 in 10.0 mi SSE 3.5 mph - N/A   Clear
9:35 PM 51.8 °F - 30.2 °F 44% 29.77 in 10.0 mi SSE 4.6 mph - N/A   Clear
9:55 PM 50.0 °F - 32.0 °F 50% 29.77 in 10.0 mi SSE 6.9 mph - N/A   Clear
10:15 PM 50.0 °F - 32.0 °F 50% 29.77 in 10.0 mi SSE 6.9 mph - N/A   Clear
10:35 PM 50.0 °F - 32.0 °F 50% 29.76 in 10.0 mi SSE 6.9 mph - N/A   Clear
10:55 PM 50.0 °F - 32.0 °F 50% 29.75 in 10.0 mi SSE 6.9 mph - N/A   Clear
11:15 PM 48.2 °F - 30.2 °F 50% 29.75 in 10.0 mi SSE 6.9 mph - N/A   Clear
11:35 PM 48.2 °F - 32.0 °F 54% 29.75 in 10.0 mi SSE 5.8 mph - N/A   Clear
11:55 PM 48.2 °F - 30.2 °F 50% 29.75 in 10.0 mi SSE 4.6 mph - N/A   Clear